When you browse on this site, cookies collect data to enhance your experience and personalize the content and advertising you see.
Visit our Privacy Policy to learn more. By continuing to use the site, you agree to this use of cookies and data.
  • Em Portugal
  • Lista de países
  • Para 7 dias
  • Temperatura da água
  • Mapa do tempo
  • Widgets de tempo
  • user-avatar
    Iniciar Sessão

    Previsão horária em Ali Bayramli

    Hoje, 23 Agosto, Sexta-feira

    Tempo Temperatura Precipitação Vento Pressão Humidade
    00:00 +26°C° 0 mm 1 m/s 756 mmHg 53%
    01:00 +26°C° 0 mm 1 m/s 756 mmHg 50%
    02:00 +26°C° 0 mm 2 m/s 756 mmHg 47%
    03:00 +27°C° 0 mm 3 m/s 756 mmHg 44%
    04:00 +27°C° 0 mm 3 m/s 756 mmHg 43%
    05:00 +28°C° 0 mm 3 m/s 756 mmHg 42%
    06:00 +28°C° 0 mm 2 m/s 756 mmHg 40%
    07:00 +31°C° 0 mm 3 m/s 757 mmHg 35%
    08:00 +35°C° 0 mm 3 m/s 757 mmHg 30%
    09:00 +37°C° 0 mm 4 m/s 757 mmHg 25%
    10:00 +40°C° 0 mm 5 m/s 757 mmHg 22%
    11:00 +41°C° 0 mm 5 m/s 756 mmHg 20%
    12:00 +42°C° 0 mm 6 m/s 756 mmHg 18%
    13:00 +43°C° 0 mm 7 m/s 756 mmHg 18%
    14:00 +43°C° 0 mm 8 m/s 756 mmHg 18%
    15:00 +43°C° 0 mm 8 m/s 755 mmHg 18%
    16:00 +40°C° 0 mm 8 m/s 755 mmHg 24%
    17:00 +38°C° 0 mm 7 m/s 755 mmHg 30%
    18:00 +35°C° 0 mm 6 m/s 755 mmHg 36%
    19:00 +33°C° 0 mm 5 m/s 755 mmHg 42%
    20:00 +32°C° 0 mm 4 m/s 756 mmHg 48%
    21:00 +29°C° 0 mm 3 m/s 756 mmHg 55%
    22:00 +29°C° 0 mm 3 m/s 756 mmHg 55%
    23:00 +29°C° 0 mm 3 m/s 756 mmHg 54%

    Amanhã, 24 Agosto, Sábado

    Tempo Temperatura Precipitação Vento Pressão Humidade
    00:00 +29°C° 0 mm 4 m/s 756 mmHg 54%
    01:00 +29°C° 0 mm 4 m/s 756 mmHg 52%
    02:00 +29°C° 0 mm 4 m/s 756 mmHg 51%
    03:00 +28°C° 0 mm 4 m/s 756 mmHg 49%
    04:00 +28°C° 0 mm 3 m/s 756 mmHg 49%
    05:00 +28°C° 0 mm 2 m/s 756 mmHg 49%
    06:00 +28°C° 0 mm 1 m/s 756 mmHg 49%
    07:00 +31°C° 0 mm 2 m/s 756 mmHg 43%
    08:00 +34°C° 0 mm 3 m/s 756 mmHg 36%
    09:00 +37°C° 0 mm 4 m/s 756 mmHg 29%
    10:00 +40°C° 0 mm 5 m/s 756 mmHg 25%
    11:00 +42°C° 0 mm 6 m/s 756 mmHg 20%
    12:00 +45°C° 0 mm 7 m/s 755 mmHg 16%
    13:00 +44°C° 0 mm 8 m/s 755 mmHg 18%
    14:00 +43°C° 0 mm 8 m/s 755 mmHg 21%
    15:00 +41°C° 0 mm 8 m/s 755 mmHg 23%
    16:00 +39°C° 0 mm 8 m/s 755 mmHg 28%
    17:00 +36°C° 0 mm 7 m/s 755 mmHg 34%
    18:00 +34°C° 0 mm 6 m/s 755 mmHg 39%
    19:00 +33°C° 0 mm 5 m/s 755 mmHg 40%
    20:00 +32°C° 0 mm 5 m/s 756 mmHg 42%
    21:00 +30°C° 0 mm 4 m/s 756 mmHg 44%
    22:00 +30°C° 0.1 mm 3 m/s 756 mmHg 43%
    23:00 +29°C° 0.1 mm 3 m/s 756 mmHg 43%

    Depois de amanhã, 25 Agosto, Domingo

    Tempo Temperatura Precipitação Vento Pressão Humidade
    00:00 +29°C° 0.1 mm 3 m/s 756 mmHg 43%
    01:00 +28°C° 0 mm 2 m/s 756 mmHg 42%
    02:00 +27°C° 0 mm 2 m/s 756 mmHg 42%
    03:00 +26°C° 0 mm 1 m/s 756 mmHg 41%
    04:00 +26°C° 0 mm 1 m/s 756 mmHg 44%
    05:00 +26°C° 0 mm 1 m/s 756 mmHg 46%
    06:00 +27°C° 0 mm 2 m/s 756 mmHg 49%
    07:00 +29°C° 0 mm 2 m/s 756 mmHg 43%
    08:00 +31°C° 0 mm 2 m/s 756 mmHg 37%
    09:00 +35°C° 0 mm 2 m/s 756 mmHg 31%
    10:00 +36°C° 0 mm 3 m/s 756 mmHg 28%
    11:00 +38°C° 0 mm 4 m/s 756 mmHg 24%
    12:00 +41°C° 0 mm 5 m/s 756 mmHg 21%
    13:00 +40°C° 0 mm 6 m/s 755 mmHg 21%
    14:00 +39°C° 0 mm 7 m/s 755 mmHg 21%
    15:00 +39°C° 0 mm 8 m/s 755 mmHg 22%
    16:00 +36°C° 0 mm 7 m/s 755 mmHg 24%
    17:00 +35°C° 0 mm 7 m/s 755 mmHg 25%
    18:00 +33°C° 0 mm 6 m/s 755 mmHg 27%
    19:00 +30°C° 0 mm 5 m/s 756 mmHg 32%
    20:00 +29°C° 0 mm 4 m/s 756 mmHg 38%
    21:00 +27°C° 0 mm 3 m/s 756 mmHg 44%
    22:00 +27°C° 0 mm 3 m/s 756 mmHg 43%
    23:00 +27°C° 0 mm 3 m/s 756 mmHg 43%

    26 Agosto, Segunda-feira

    Tempo Temperatura Precipitação Vento Pressão Humidade
    00:00 +26°C° 0 mm 3 m/s 756 mmHg 42%
    01:00 +26°C° 0 mm 3 m/s 756 mmHg 42%
    02:00 +26°C° 0 mm 3 m/s 756 mmHg 42%
    03:00 +25°C° 0 mm 3 m/s 756 mmHg 41%
    04:00 +26°C° 0 mm 3 m/s 757 mmHg 43%
    05:00 +26°C° 0 mm 3 m/s 757 mmHg 44%
    06:00 +26°C° 0 mm 2 m/s 757 mmHg 45%
    07:00 +28°C° 0 mm 3 m/s 758 mmHg 39%
    08:00 +30°C° 0 mm 3 m/s 758 mmHg 33%
    09:00 +34°C° 0 mm 4 m/s 758 mmHg 27%
    10:00 +35°C° 0 mm 4 m/s 758 mmHg 26%
    11:00 +36°C° 0 mm 5 m/s 758 mmHg 24%
    12:00 +39°C° 0 mm 5 m/s 758 mmHg 23%
    13:00 +38°C° 0 mm 7 m/s 758 mmHg 24%
    14:00 +38°C° 0 mm 9 m/s 758 mmHg 26%
    15:00 +37°C° 0 mm 11 m/s 758 mmHg 28%
    16:00 +36°C° 0 mm 11 m/s 758 mmHg 32%
    17:00 +33°C° 0 mm 11 m/s 759 mmHg 36%
    18:00 +32°C° 0 mm 11 m/s 759 mmHg 40%
    19:00 +31°C° 0 mm 10 m/s 759 mmHg 43%
    20:00 +29°C° 0 mm 10 m/s 760 mmHg 47%
    21:00 +28°C° 0 mm 10 m/s 760 mmHg 51%
    22:00 +28°C° 0 mm 9 m/s 761 mmHg 50%
    23:00 +28°C° 0 mm 8 m/s 761 mmHg 49%

    27 Agosto, Terça-feira

    Tempo Temperatura Precipitação Vento Pressão Humidade
    00:00 +28°C° 0 mm 6 m/s 761 mmHg 48%
    01:00 +27°C° 0 mm 5 m/s 761 mmHg 51%
    02:00 +26°C° 0 mm 4 m/s 760 mmHg 55%
    03:00 +26°C° 0 mm 3 m/s 760 mmHg 58%
    04:00 +26°C° 0 mm 2 m/s 760 mmHg 59%
    05:00 +25°C° 0 mm 2 m/s 760 mmHg 59%
    06:00 +25°C° 0 mm 2 m/s 760 mmHg 59%
    07:00 +27°C° 0 mm 3 m/s 760 mmHg 51%
    08:00 +29°C° 0 mm 4 m/s 760 mmHg 43%
    09:00 +32°C° 0 mm 4 m/s 760 mmHg 35%
    10:00 +33°C° 0 mm 5 m/s 759 mmHg 34%
    11:00 +34°C° 0 mm 5 m/s 759 mmHg 33%
    12:00 +34°C° 0 mm 6 m/s 758 mmHg 32%
    13:00 +34°C° 0 mm 6 m/s 758 mmHg 32%
    14:00 +35°C° 0 mm 6 m/s 757 mmHg 32%
    15:00 +35°C° 0 mm 6 m/s 757 mmHg 31%
    16:00 +33°C° 0 mm 6 m/s 757 mmHg 35%
    17:00 +32°C° 0 mm 5 m/s 757 mmHg 39%
    18:00 +30°C° 0 mm 5 m/s 757 mmHg 43%
    19:00 +28°C° 0.1 mm 4 m/s 757 mmHg 50%
    20:00 +27°C° 0.1 mm 4 m/s 757 mmHg 56%
    21:00 +26°C° 0.1 mm 3 m/s 757 mmHg 63%
    22:00 +25°C° 0 mm 3 m/s 757 mmHg 66%
    23:00 +24°C° 0 mm 2 m/s 756 mmHg 69%

    28 Agosto, Quarta-feira

    Tempo Temperatura Precipitação Vento Pressão Humidade
    00:00 +24°C° 0 mm 1 m/s 756 mmHg 72%
    01:00 +23°C° 0.1 mm 1 m/s 756 mmHg 73%
    02:00 +23°C° 0.1 mm 1 m/s 756 mmHg 75%
    03:00 +22°C° 0.1 mm 1 m/s 755 mmHg 76%
    04:00 +23°C° 0 mm 1 m/s 756 mmHg 74%
    05:00 +23°C° 0 mm 1 m/s 756 mmHg 72%
    06:00 +24°C° 0 mm 1 m/s 756 mmHg 70%
    07:00 +26°C° 0 mm 1 m/s 756 mmHg 60%
    08:00 +28°C° 0 mm 1 m/s 756 mmHg 51%
    09:00 +28°C° 0 mm 0 m/s 756 mmHg 42%
    10:00 +31°C° 0 mm 1 m/s 756 mmHg 38%
    11:00 +32°C° 0 mm 2 m/s 756 mmHg 34%
    12:00 +35°C° 0 mm 2 m/s 756 mmHg 30%
    13:00 +35°C° 0 mm 4 m/s 756 mmHg 31%
    14:00 +35°C° 0 mm 6 m/s 756 mmHg 32%
    15:00 +35°C° 0 mm 7 m/s 756 mmHg 33%
    16:00 +33°C° 0 mm 8 m/s 756 mmHg 38%
    17:00 +32°C° 0 mm 8 m/s 756 mmHg 42%
    18:00 +29°C° 0 mm 9 m/s 756 mmHg 46%
    19:00 +28°C° 0 mm 8 m/s 757 mmHg 45%
    20:00 +27°C° 0 mm 7 m/s 758 mmHg 45%
    21:00 +27°C° 0 mm 7 m/s 758 mmHg 44%
    22:00 +26°C° 0 mm 6 m/s 758 mmHg 46%
    23:00 +26°C° 0 mm 5 m/s 758 mmHg 47%
    Mostrar mais